Weather History for Billings, MT

Change the Weather History Date:

Thursday, October 4, 2012

  Actual Average Record
Temperature  
Mean Temperature 40 °F 52 °F  
Max Temperature 44 °F 64 °F 90 °F (1963)
Min Temperature 35 °F 41 °F 27 °F (2000)
Degree Days  
Heating Degree Days 25 13  
Month to date heating degree days 52 49  
Since 1 July heating degree days 117 278  
Cooling Degree Days 0 0  
Month to date cooling degree days 3 0  
Year to date cooling degree days 958 633  
Moisture  
Dew Point 33 °F    
Average Humidity 81    
Maximum Humidity 96    
Minimum Humidity 57    
Precipitation  
Precipitation 0.01 in 0.04 in 1.98 in (1937)
Month to date precipitation 0.35 0.19  
Year to date precipitation 5.43 11.54  
Snow  
Snow 0.10 in 0.10 in 9.90 in (2005)
Month to date snowfall 2.4 0.5  
Since 1 July snowfall 2.4 1.6  
Since 1 September snowfall 2.4 1.6  
Snow Depth 0.00 in    
Sea Level Pressure  
Sea Level Pressure 30.41 in    
Wind  
Wind Speed 7 mph (ENE)    
Max Wind Speed 16 mph    
Max Gust Speed 21 mph    
Visibility 10 miles    
Events Snow    
T = Trace of Precipitation, MM = Missing Value Source: NWS Daily Summary

Daily Weather History Graph

Daily Weather History Graph

Search for Another Location

Airport:

Trip Planner

Search our weather history database for the weather conditions in past years. The results will help you decide how hot, cold, wet, or windy it might be!

Date:

Astronomy

Oct. 04, 2012 Rise Set
Actual Time 7:17 AM MDT 6:47 PM MDT
Civil Twilight 6:47 AM MDT 7:17 PM MDT
Nautical Twilight 6:12 AM MDT 7:51 PM MDT
Astronomical Twilight 5:37 AM MDT 8:26 PM MDT
Moon 9:11 PM MDT (10/4) 11:51 AM MDT (10/4)
Length of Visible Light 12h 29m
Length of Day
11h 30m
Waning Gibbous, 81% of the Moon is Illuminated
Oct 4
Waning Gibbous
Oct 8
Last Quarter
Oct 15
New
Oct 21
First Quarter
Oct 29
Full

Hourly Weather History & Observations

Time (MDT) Temp. Windchill Dew Point Humidity Pressure Visibility Wind Dir Wind Speed Gust Speed Precip Events Conditions
12:53 AM 37.0 °F 33.3 °F 33.1 °F 86% 30.51 in 10.0 mi NNE 4.6 mph - N/A   Overcast
1:24 AM 37.4 °F - 33.8 °F 87% 30.43 in 10.0 mi Calm Calm - N/A   Overcast
1:53 AM 37.0 °F - 33.1 °F 86% 30.50 in 10.0 mi Calm Calm - N/A   Overcast
2:53 AM 36.0 °F - 33.1 °F 89% 30.47 in 10.0 mi Calm Calm - N/A   Overcast
3:53 AM 36.0 °F - 33.1 °F 89% 30.46 in 10.0 mi Calm Calm - N/A   Overcast
4:53 AM 36.0 °F 32.1 °F 34.0 °F 93% 30.44 in 10.0 mi NE 4.6 mph - N/A   Overcast
5:53 AM 35.1 °F 32.2 °F 34.0 °F 96% 30.45 in 10.0 mi ENE 3.5 mph - N/A   Overcast
6:29 AM 35.6 °F 31.7 °F 33.8 °F 93% 30.38 in 10.0 mi ENE 4.6 mph - N/A   Overcast
6:53 AM 36.0 °F 33.3 °F 34.0 °F 93% 30.45 in 10.0 mi East 3.5 mph - N/A   Overcast
7:30 AM 35.6 °F 31.7 °F 33.8 °F 93% 30.38 in 10.0 mi ENE 4.6 mph - N/A   Overcast
7:53 AM 36.0 °F 33.3 °F 33.1 °F 89% 30.45 in 10.0 mi ENE 3.5 mph - N/A   Overcast
8:53 AM 37.0 °F 33.3 °F 33.1 °F 86% 30.45 in 10.0 mi ENE 4.6 mph - N/A   Overcast
9:01 AM 37.4 °F 33.8 °F 33.8 °F 87% 30.38 in 10.0 mi ENE 4.6 mph - N/A   Overcast
9:53 AM 37.9 °F 33.5 °F 33.1 °F 83% 30.45 in 10.0 mi ENE 5.8 mph - N/A   Overcast
10:53 AM 39.0 °F 35.7 °F 33.1 °F 79% 30.44 in 10.0 mi ESE 4.6 mph - N/A   Overcast
11:26 AM 39.2 °F 35.9 °F 33.8 °F 81% 30.37 in 10.0 mi ENE 4.6 mph - N/A   Overcast
11:53 AM 41.0 °F 39.0 °F 32.0 °F 70% 30.43 in 10.0 mi ENE 3.5 mph - N/A   Overcast
12:14 PM 41.0 °F 39.0 °F 32.0 °F 70% 30.36 in 10.0 mi ENE 3.5 mph - N/A   Overcast
12:53 PM 42.1 °F 38.4 °F 30.9 °F 65% 30.40 in 10.0 mi ENE 5.8 mph - N/A   Overcast
1:53 PM 43.0 °F 38.2 °F 32.0 °F 65% 30.38 in 10.0 mi East 8.1 mph - N/A   Overcast
2:53 PM 43.0 °F 38.2 °F 30.9 °F 62% 30.37 in 10.0 mi East 8.1 mph - N/A   Mostly Cloudy
3:53 PM 44.6 °F 40.7 °F 30.2 °F 57% 30.31 in 10.0 mi ENE 6.9 mph - N/A   Mostly Cloudy
4:53 PM 43.0 °F 38.2 °F 30.0 °F 60% 30.37 in 10.0 mi NE 8.1 mph - N/A   Mostly Cloudy
5:53 PM 39.0 °F 31.4 °F 33.1 °F 79% 30.39 in 10.0 mi NNE 12.7 mph - N/A   Mostly Cloudy
6:53 PM 39.0 °F 31.8 °F 32.0 °F 76% 30.40 in 10.0 mi NNE 11.5 mph - N/A   Overcast
7:53 PM 39.0 °F 32.8 °F 32.0 °F 76% 30.41 in 10.0 mi NE 9.2 mph - N/A   Mostly Cloudy
8:53 PM 37.9 °F 32.1 °F 33.1 °F 83% 30.41 in 10.0 mi NNE 8.1 mph - 0.00 in Snow Light Snow
9:39 PM 37.4 °F 28.9 °F 33.8 °F 87% 30.35 in 9.0 mi ENE 13.8 mph - 0.01 in Snow Light Snow
9:53 PM 37.0 °F 28.1 °F 34.0 °F 89% 30.42 in 10.0 mi NE 15.0 mph - 0.01 in   Overcast
9:55 PM 37.4 °F 28.9 °F 33.8 °F 87% 30.35 in 10.0 mi ENE 13.8 mph - N/A   Overcast
10:53 PM 36.0 °F 29.0 °F 33.1 °F 89% 30.42 in 10.0 mi NE 9.2 mph - N/A   Overcast
11:01 PM 35.6 °F 28.0 °F 33.8 °F 93% 30.35 in 10.0 mi NE 10.4 mph - N/A   Overcast
11:53 PM 36.0 °F 28.5 °F 33.1 °F 89% 30.40 in 10.0 mi NNE 10.4 mph - N/A   Overcast